Main page
METAR-TAF:

METAR-TAF

Airports :

Syros Island National Airport

Syros, Greece

latitude: 37-25-16N, longitude: 024-56-54E, elevation: 73 m

Current weather observation

The report was made 30 minutes ago, at 20:50 UTC
Wind 5 kt from the West
Temperature 15°C
Humidity 77%
Pressure 1017 hPa

METAR: LGSO 072050Z AUTO 27005KT //// // ////// 15/11 Q1017 RE//

Time: 23:20 (21:20 UTC)


TAF: missing

Weather observations and forecasts of more than 4000 airports (METAR and TAF reports).

The available stations are represented by yellow and red dots on the map.

Hover mouse over dot to see the name of the station.

Then click to see weather observations and forecasts.

To change the map : click on the green buttons with a black cross to zoom in, on the green button with a dash to zoom out, or on the green arrows for adjacent maps.


METAR-TAF: